Flag for U.S.A. Weather past 2 weeks in Arden-Arcade, California, U.S.A.

Now
59 °F

Clear.


Feels Like: 59 °F
Forecast: 61 / 93 °F
Wind: 5 mph from Southeast

Location: Mather Field

Current Time: Jul 24, 2014 at 4:31:07 AM

Latest Report: Jul 24, 2014 at 3:54 AM


Visibility: 10 mi

Pressure: 29.98 "Hg

Humidity: 94%

Dew point: 57 °F

Location of Arden-ArcadeLocation

Historic Weather in Arden-Arcade — Graph

°F

Arden-Arcade temperature yesterday

Maximum temperature yesterday: 86 °F (at 4:55 PM)
Minimum temperature yesterday: 55 °F (at 5:46 AM)
Average temperature yesterday: 72 °F

Past Weeks' High & Low Weather Summary

 TemperatureHumidityPressure
High106 °F (Jul 14, 3:55 PM)100% (Jul 10, 3:48 AM)30.13 "Hg (Jul 10, 3:48 AM)
Low55 °F (Jul 23, 5:46 AM)16% (Jul 14, 5:45 PM)29.78 "Hg (Jul 9, 6:50 PM)
Average74 °F57%29.93 "Hg
* Reported Jul 9 5:46 AM — Jul 24 2:47 AM, Arden-Arcade, Weather by CustomWeather, © 2014

Note: Actual official high and low records may vary slightly from our data, if they occured in-between our weather recording intervals... More about our weather records

Advertising

Arden-Arcade weather history for previous 24 hours

 ConditionsComfort  
Time TempWeatherWind HumidityBarometerVisibility
2:47 AM
Jul 24
59 °FClear.3 mph88%29.99 "Hg10 mi
11:30 PM
Jul 23
64 °FClear.5 mph73%29.99 "Hg10 mi
10:45 PM68 °FClear.No wind69%29.99 "Hg10 mi
9:45 PM72 °FClear.6 mph65%29.98 "Hg10 mi
8:45 PM75 °FSunny.9 mph54%29.98 "Hg10 mi
7:53 PM81 °FSunny.13 mph48%29.97 "Hg10 mi
6:48 PM86 °FSunny.6 mph27%29.98 "Hg10 mi
5:45 PM86 °FSunny.7 mph33%29.99 "Hg10 mi
4:55 PM86 °FSunny.6 mph31%30.01 "Hg10 mi
2:45 PM82 °FPassing clouds.7 mph32%30.06 "Hg10 mi
1:45 PM82 °FPassing clouds.8 mph32%30.08 "Hg10 mi
12:50 PM81 °FPassing clouds.7 mph37%30.09 "Hg10 mi
11:50 AM75 °FPassing clouds.8 mph50%30.11 "Hg10 mi
10:48 AM73 °FPassing clouds.6 mph53%30.12 "Hg10 mi
9:45 AM72 °FPassing clouds.6 mph57%30.12 "Hg10 mi
8:59 AM68 °FPassing clouds.5 mph64%30.13 "Hg10 mi
7:48 AM64 °FPassing clouds.5 mph78%30.13 "Hg10 mi
6:55 AM59 °FPassing clouds.5 mph100%30.12 "Hg10 mi
5:46 AM55 °FPassing clouds.6 mph100%30.10 "Hg10 mi
4:46 AM57 °FClear.7 mph100%30.10 "Hg10 mi
Weather by CustomWeather, © 2014

See weather overviewHow to use our weather pages